Date,TemperatureHighF,TemperatureAvgF,TemperatureLowF,DewpointHighF,DewpointAvgF,DewpointLowF,HumidityHigh,HumidityAvg,HumidityLow,PressureMaxIn,PressureMinIn,WindSpeedMaxMPH,WindSpeedAvgMPH,GustSpeedMaxMPH,PrecipitationSumIn
2013-2-1,17.8,15.5,13.5,8.8,7.4,5.5,77,70,62,30.44,30.37,8,2,13,0.00
2013-2-2,31.6,24.0,14.5,27.5,20.1,8.6,93,85,74,30.37,30.03,13,2,13,0.00
2013-2-3,28.2,22.6,18.5,24.4,18.3,14.0,89,83,75,30.15,29.96,14,3,16,0.00
2013-2-4,35.7,28.2,19.3,34.9,25.1,16.9,98,88,71,30.15,29.84,15,2,15,0.01
2013-2-5,37.6,34.0,27.8,35.3,31.0,26.0,98,89,81,30.02,29.85,9,1,9,0.09
2013-2-6,37.5,34.3,29.2,33.1,29.2,26.4,90,82,73,30.27,30.02,10,1,10,0.00
2013-2-7,60.9,44.8,31.8,39.4,33.9,27.8,88,68,41,30.22,29.80,17,2,17,0.00
2013-2-8,52.9,37.6,31.4,46.1,32.6,23.9,95,82,59,30.33,29.79,20,4,20,0.06
2013-2-9,41.1,32.6,22.6,24.7,21.2,19.1,87,64,41,30.44,30.23,10,2,10,0.00
2013-2-10,56.5,44.0,33.6,47.4,32.2,21.5,93,65,41,30.23,29.79,23,5,23,0.02
2013-2-11,52.5,47.3,38.3,50.7,37.1,29.3,96,69,50,30.05,29.76,24,5,24,0.00
2013-2-12,49.7,39.5,30.4,29.8,27.6,23.8,84,64,39,30.14,29.90,10,2,10,0.00
2013-2-13,35.6,32.6,30.2,31.6,29.3,25.9,95,87,71,29.91,29.77,10,1,10,0.04
2013-2-14,53.0,40.4,31.4,40.5,34.4,29.0,96,80,54,30.00,29.83,17,3,17,0.03
2013-2-15,40.9,33.8,25.5,32.0,28.0,21.2,92,79,54,30.16,29.99,14,2,15,0.00
2013-2-16,28.9,23.4,17.7,22.0,16.6,11.2,95,76,53,30.16,30.06,16,2,16,0.00
2013-2-17,31.2,22.9,12.7,14.8,10.8,5.4,94,62,36,30.28,30.14,9,1,10,0.00
2013-2-18,59.3,42.5,25.1,41.0,26.1,8.8,84,53,43,30.24,29.75,30,6,31,0.07
2013-2-19,45.8,33.2,24.3,42.1,26.7,15.0,96,77,62,30.13,29.66,30,7,30,0.10
2013-2-20,28.2,23.4,19.2,16.5,14.0,11.4,80,67,55,30.33,30.13,16,3,17,0.00
2013-2-21,32.2,25.7,18.7,27.2,19.3,13.9,90,77,63,30.38,30.06,18,2,18,0.00
2013-2-22,43.6,35.9,29.8,39.4,33.9,27.0,99,93,81,30.09,29.89,12,2,12,0.05
2013-2-23,43.2,35.9,31.4,34.0,28.5,25.3,97,76,53,30.00,29.91,10,2,10,0.00
2013-2-24,42.4,32.8,25.9,28.1,24.9,22.1,89,74,53,30.16,29.94,10,2,10,0.00
2013-2-25,45.2,36.1,25.7,28.0,24.8,21.7,85,65,47,30.18,29.89,16,3,16,0.00
2013-2-26,49.3,42.1,36.0,48.8,38.0,24.5,98,86,58,29.90,29.35,19,4,19,0.87
2013-2-27,41.4,36.7,33.1,40.1,34.5,30.6,96,92,83,29.73,29.52,14,3,14,0.04
2013-2-28,36.4,34.2,32.0,33.9,31.9,29.5,96,91,87,29.97,29.70,15,3,15,0.01